Weather History for Soldotna, AK

Change the Weather History Date:

Friday, June 28, 2013

  Actual Average Record
Temperature  
Mean Temperature 54 °F -  
Max Temperature 57 °F 60 °F 78 °F (1997)
Min Temperature 50 °F 43 °F -3 °F (1971)
Degree Days  
Heating Degree Days 12    
Growing Degree Days 4 (Base 50)    
Moisture  
Dew Point 48 °F    
Average Humidity 80    
Maximum Humidity 87    
Minimum Humidity 72    
Precipitation  
Precipitation 0.04 in - - ()
Sea Level Pressure  
Sea Level Pressure 30.15 in    
Wind  
Wind Speed 4 mph (West)    
Max Wind Speed 9 mph    
Max Gust Speed -    
Visibility 10 miles    
Events      
Averages and records for this station are not official NWS values.
T = Trace of Precipitation, MM = Missing Value Source: NWS Daily Summary

Daily Weather History Graph

Daily Weather History Graph

Search for Another Location

Airport:

Trip Planner

Search our weather history database for the weather conditions in past years. The results will help you decide how hot, cold, wet, or windy it might be!

Date:

Astronomy

Jun. 28, 2013 Rise Set
Actual Time 4:38 AM AKDT 11:36 PM AKDT
Civil Twilight 2:40 AM AKDT 1:31 AM AKDT
Nautical Twilight Sun does not rise Sun does not rise
Astronomical Twilight Sun does not rise Sun does not rise
Moon 12:48 AM AKDT (6/28) 12:57 PM AKDT (6/28)
Length of Visible Light 22h 51m
Length of Day
18h 57m
Waning Gibbous, 65% of the Moon is Illuminated
Jun 28
Waning Gibbous
Jun 29
Last Quarter
Jul 7
New
Jul 15
First Quarter
Jul 22
Full

Hourly Weather History & Observations

Time (AKDT) Temp. Dew Point Humidity Pressure Visibility Wind Dir Wind Speed Gust Speed Precip Events Conditions
12:16 AM 55.4 °F 48.2 °F 77% 30.08 in 10.0 mi NW 3.5 mph - N/A   Mostly Cloudy
12:36 AM 53.6 °F 46.4 °F 77% 30.09 in 10.0 mi WNW 3.5 mph - N/A   Mostly Cloudy
12:56 AM 53.6 °F 46.4 °F 77% 30.09 in 10.0 mi West 5.8 mph - N/A   Overcast
1:16 AM 51.8 °F 46.4 °F 82% 30.09 in 10.0 mi West 6.9 mph - N/A   Overcast
1:36 AM 51.8 °F 46.4 °F 82% 30.10 in 10.0 mi West 5.8 mph - N/A   Overcast
1:56 AM 51.8 °F 46.4 °F 82% 30.10 in 10.0 mi West 3.5 mph - N/A   Overcast
2:16 AM 51.8 °F 46.4 °F 82% 30.11 in 10.0 mi West 3.5 mph - N/A   Overcast
2:36 AM 51.8 °F 46.4 °F 82% 30.11 in 10.0 mi West 4.6 mph - N/A   Overcast
2:56 AM 50.0 °F 46.4 °F 87% 30.12 in 10.0 mi West 4.6 mph - N/A   Overcast
3:16 AM 50.0 °F 46.4 °F 87% 30.12 in 10.0 mi West 3.5 mph - N/A   Overcast
3:36 AM 50.0 °F 46.4 °F 87% 30.12 in 10.0 mi WNW 4.6 mph - N/A   Overcast
3:56 AM 51.8 °F 46.4 °F 82% 30.12 in 10.0 mi West 3.5 mph - N/A   Overcast
4:16 AM 51.8 °F 46.4 °F 82% 30.13 in 10.0 mi West 4.6 mph - N/A   Overcast
4:36 AM 51.8 °F 46.4 °F 82% 30.12 in 10.0 mi WSW 3.5 mph - N/A   Overcast
4:56 AM 51.8 °F 46.4 °F 82% 30.12 in 10.0 mi Calm Calm - N/A   Overcast
5:16 AM 51.8 °F 46.4 °F 82% 30.12 in 10.0 mi West 4.6 mph - N/A   Overcast
5:36 AM 51.8 °F 46.4 °F 82% 30.12 in 10.0 mi SW 5.8 mph - N/A   Overcast
5:56 AM 51.8 °F 46.4 °F 82% 30.14 in 10.0 mi Calm Calm - N/A   Overcast
6:16 AM 51.8 °F 46.4 °F 82% 30.14 in 10.0 mi SW 3.5 mph - N/A   Mostly Cloudy
6:36 AM 51.8 °F 46.4 °F 82% 30.14 in 10.0 mi WSW 3.5 mph - N/A   Overcast
6:56 AM 51.8 °F 46.4 °F 82% 30.14 in 10.0 mi Calm Calm - N/A   Overcast
7:16 AM 51.8 °F 46.4 °F 82% 30.14 in 10.0 mi WSW 3.5 mph - N/A   Overcast
7:36 AM 51.8 °F 46.4 °F 82% 30.15 in 10.0 mi Calm Calm - N/A   Overcast
7:56 AM 53.6 °F 46.4 °F 77% 30.15 in 10.0 mi Calm Calm - N/A   Overcast
8:16 AM 53.6 °F 46.4 °F 77% 30.16 in 10.0 mi Calm Calm - N/A   Overcast
8:36 AM 53.6 °F 46.4 °F 77% 30.16 in 10.0 mi Calm Calm - N/A   Overcast
8:56 AM 53.6 °F 46.4 °F 77% 30.16 in 10.0 mi Calm Calm - N/A   Overcast
9:16 AM 53.6 °F 46.4 °F 77% 30.16 in 10.0 mi West 3.5 mph - N/A   Overcast
9:36 AM 53.6 °F 46.4 °F 77% 30.16 in 10.0 mi WSW 3.5 mph - N/A   Overcast
9:56 AM 53.6 °F 46.4 °F 77% 30.16 in 10.0 mi West 3.5 mph - N/A   Overcast
10:16 AM 53.6 °F 46.4 °F 77% 30.17 in 10.0 mi Calm Calm - N/A   Overcast
10:36 AM 53.6 °F 48.2 °F 82% 30.17 in 10.0 mi Calm Calm - 0.04 in   Overcast
10:56 AM 53.6 °F 48.2 °F 82% 30.17 in 10.0 mi WNW 5.8 mph - 0.04 in   Overcast
11:16 AM 53.6 °F 48.2 °F 82% 30.17 in 10.0 mi NW 4.6 mph - N/A   Overcast
11:36 AM 53.6 °F 48.2 °F 82% 30.17 in 10.0 mi NW 3.5 mph - N/A   Overcast
11:56 AM 53.6 °F 48.2 °F 82% 30.17 in 10.0 mi NW 3.5 mph - N/A   Overcast
12:16 PM 53.6 °F 48.2 °F 82% 30.17 in 10.0 mi NNW 3.5 mph - N/A   Overcast
12:36 PM 53.6 °F 48.2 °F 82% 30.17 in 10.0 mi Calm Calm - N/A   Overcast
12:56 PM 55.4 °F 50.0 °F 82% 30.18 in 10.0 mi NW 4.6 mph - N/A   Overcast
1:16 PM 55.4 °F 50.0 °F 82% 30.18 in 10.0 mi NW 4.6 mph - N/A   Overcast
1:36 PM 55.4 °F 50.0 °F 82% 30.18 in 10.0 mi WNW 4.6 mph - N/A   Overcast
1:56 PM 55.4 °F 48.2 °F 77% 30.18 in 10.0 mi NW 3.5 mph - N/A   Overcast
2:16 PM 55.4 °F 48.2 °F 77% 30.18 in 10.0 mi West 6.9 mph - N/A   Overcast
2:36 PM 55.4 °F 48.2 °F 77% 30.18 in 10.0 mi West 8.1 mph - N/A   Overcast
2:56 PM 55.4 °F 48.2 °F 77% 30.18 in 10.0 mi West 8.1 mph - N/A   Overcast
3:16 PM 55.4 °F 50.0 °F 82% 30.18 in 10.0 mi West 5.8 mph - N/A   Overcast
3:36 PM 55.4 °F 48.2 °F 77% 30.18 in 10.0 mi WSW 6.9 mph - N/A   Overcast
3:56 PM 55.4 °F 48.2 °F 77% 30.18 in 10.0 mi West 5.8 mph - N/A   Overcast
4:16 PM 57.2 °F 48.2 °F 72% 30.18 in 10.0 mi WSW 4.6 mph - N/A   Overcast
4:36 PM 57.2 °F 50.0 °F 77% 30.18 in 10.0 mi WNW 9.2 mph - N/A   Overcast
4:56 PM 57.2 °F 48.2 °F 72% 30.18 in 10.0 mi WNW 6.9 mph - N/A   Overcast
5:16 PM 55.4 °F 50.0 °F 82% 30.17 in 10.0 mi WNW 9.2 mph - N/A   Overcast
5:36 PM 55.4 °F 48.2 °F 77% 30.17 in 10.0 mi NW 5.8 mph - N/A   Overcast
5:56 PM 55.4 °F 50.0 °F 82% 30.17 in 10.0 mi NW 4.6 mph - N/A   Overcast
6:16 PM 55.4 °F 48.2 °F 77% 30.17 in 10.0 mi West 3.5 mph - N/A   Overcast
6:36 PM 57.2 °F 48.2 °F 72% 30.17 in 10.0 mi WSW 5.8 mph - N/A   Overcast
6:56 PM 55.4 °F 48.2 °F 77% 30.17 in 10.0 mi West 9.2 mph - N/A   Overcast
7:16 PM 55.4 °F 48.2 °F 77% 30.16 in 10.0 mi West 8.1 mph - N/A   Overcast
7:36 PM 55.4 °F 48.2 °F 77% 30.16 in 10.0 mi West 8.1 mph - N/A   Overcast
7:56 PM 55.4 °F 48.2 °F 77% 30.16 in 10.0 mi WSW 6.9 mph - N/A   Overcast
8:16 PM 55.4 °F 48.2 °F 77% 30.16 in 10.0 mi West 9.2 mph - N/A   Overcast
8:36 PM 55.4 °F 48.2 °F 77% 30.15 in 10.0 mi WSW 8.1 mph - N/A   Unknown
8:56 PM 55.4 °F 48.2 °F 77% 30.14 in 10.0 mi West 6.9 mph - N/A   Unknown
9:16 PM 55.4 °F 48.2 °F 77% 30.14 in 10.0 mi WSW 3.5 mph - N/A   Unknown
9:36 PM 55.4 °F 48.2 °F 77% 30.14 in 10.0 mi West 4.6 mph - N/A   Unknown
9:56 PM 55.4 °F 48.2 °F 77% 30.14 in 10.0 mi NW 5.8 mph - N/A   Unknown
10:16 PM 55.4 °F 48.2 °F 77% 30.14 in 10.0 mi NW 4.6 mph - N/A   Unknown
10:36 PM 55.4 °F 48.2 °F 77% 30.14 in 10.0 mi NW 3.5 mph - N/A   Unknown
10:56 PM 53.6 °F 48.2 °F 82% 30.14 in 10.0 mi Calm Calm - N/A   Unknown
11:16 PM 53.6 °F 48.2 °F 82% 30.15 in 10.0 mi WSW 3.5 mph - N/A   Unknown
11:36 PM 53.6 °F 48.2 °F 82% 30.14 in 10.0 mi Calm Calm - N/A   Unknown
11:56 PM 53.6 °F 48.2 °F 82% 30.14 in 10.0 mi Calm Calm - N/A   Unknown